When you browse on this site, cookies collect data to enhance your experience and personalize the content and advertising you see.
Visit our Privacy Policy to learn more. By continuing to use the site, you agree to this use of cookies and data.
  • In Latvia
  • List of Countries
  • For 7 days
  • Water Temperature
  • Satellite Maps
  • Weather Map
  • Weather Widgets
  • user-avatar
    Login

    Hourly Weather Eisenstadt

    Today, 15 July, Monday

    Time Temperature Precipitation Wind Pressure Humidity
    00:00 +14°C° 0 mm 2 mps 721 mmHg 80%
    01:00 +12°C° 0 mm 3 mps 721 mmHg 83%
    02:00 +12°C° 0 mm 3 mps 721 mmHg 84%
    03:00 +13°C° 0 mm 2 mps 720 mmHg 85%
    04:00 +13°C° 0 mm 2 mps 720 mmHg 87%
    05:00 +13°C° 0 mm 3 mps 721 mmHg 80%
    06:00 +16°C° 0 mm 3 mps 721 mmHg 72%
    07:00 +18°C° 0 mm 3 mps 722 mmHg 67%
    08:00 +19°C° 0 mm 4 mps 721 mmHg 62%
    09:00 +20°C° 0 mm 4 mps 721 mmHg 57%
    10:00 +21°C° 0 mm 4 mps 721 mmHg 52%
    11:00 +22°C° 0 mm 4 mps 721 mmHg 49%
    12:00 +22°C° 0 mm 4 mps 721 mmHg 46%
    13:00 +23°C° 0 mm 4 mps 721 mmHg 41%
    14:00 +23°C° 0 mm 4 mps 721 mmHg 41%
    15:00 +23°C° 0 mm 4 mps 721 mmHg 41%
    16:00 +23°C° 0 mm 4 mps 721 mmHg 41%
    17:00 +21°C° 0 mm 3 mps 721 mmHg 49%
    18:00 +20°C° 0 mm 2 mps 721 mmHg 57%
    19:00 +19°C° 0 mm 2 mps 721 mmHg 65%
    20:00 +17°C° 0 mm 2 mps 721 mmHg 68%
    21:00 +16°C° 0 mm 2 mps 721 mmHg 71%
    22:00 +15°C° 0 mm 2 mps 721 mmHg 74%
    23:00 +15°C° 0 mm 2 mps 721 mmHg 74%

    Tomorrow, 16 July, Tuesday

    Time Temperature Precipitation Wind Pressure Humidity
    00:00 +14°C° 0 mm 2 mps 721 mmHg 74%
    01:00 +14°C° 0 mm 2 mps 721 mmHg 74%
    02:00 +14°C° 0 mm 2 mps 721 mmHg 76%
    03:00 +14°C° 0 mm 2 mps 721 mmHg 77%
    04:00 +13°C° 0 mm 2 mps 721 mmHg 79%
    05:00 +15°C° 0 mm 2 mps 721 mmHg 74%
    06:00 +17°C° 0 mm 2 mps 721 mmHg 69%
    07:00 +19°C° 0 mm 2 mps 722 mmHg 64%
    08:00 +20°C° 0 mm 2 mps 722 mmHg 58%
    09:00 +23°C° 0 mm 2 mps 722 mmHg 53%
    10:00 +25°C° 0 mm 2 mps 722 mmHg 47%
    11:00 +25°C° 0 mm 2 mps 722 mmHg 47%
    12:00 +25°C° 0 mm 2 mps 721 mmHg 46%
    13:00 +25°C° 0 mm 2 mps 721 mmHg 45%
    14:00 +26°C° 0 mm 2 mps 721 mmHg 44%
    15:00 +26°C° 0 mm 3 mps 721 mmHg 43%
    16:00 +26°C° 0 mm 3 mps 721 mmHg 42%
    17:00 +25°C° 0 mm 3 mps 721 mmHg 49%
    18:00 +23°C° 0 mm 2 mps 721 mmHg 56%
    19:00 +20°C° 0 mm 2 mps 721 mmHg 62%
    20:00 +19°C° 0 mm 2 mps 721 mmHg 67%
    21:00 +18°C° 0 mm 2 mps 721 mmHg 71%
    22:00 +16°C° 0 mm 2 mps 722 mmHg 75%
    23:00 +15°C° 0 mm 2 mps 722 mmHg 78%

    Day after tomorrow, 17 July, Wednesday

    Time Temperature Precipitation Wind Pressure Humidity
    00:00 +15°C° 0 mm 2 mps 722 mmHg 81%
    01:00 +14°C° 0 mm 1 mps 722 mmHg 85%
    02:00 +13°C° 0 mm 1 mps 722 mmHg 86%
    03:00 +13°C° 0 mm 1 mps 722 mmHg 87%
    04:00 +13°C° 0 mm 1 mps 721 mmHg 89%
    05:00 +14°C° 0 mm 1 mps 722 mmHg 83%
    06:00 +16°C° 0 mm 1 mps 722 mmHg 76%
    07:00 +19°C° 0 mm 1 mps 722 mmHg 70%
    08:00 +20°C° 0 mm 1 mps 722 mmHg 66%
    09:00 +22°C° 0 mm 1 mps 722 mmHg 61%
    10:00 +23°C° 0 mm 1 mps 722 mmHg 57%
    11:00 +24°C° 0 mm 1 mps 721 mmHg 56%
    12:00 +24°C° 0 mm 1 mps 721 mmHg 54%
    13:00 +25°C° 0 mm 1 mps 721 mmHg 53%
    14:00 +25°C° 0.1 mm 1 mps 720 mmHg 54%
    15:00 +25°C° 0.1 mm 1 mps 720 mmHg 55%
    16:00 +25°C° 0.1 mm 1 mps 720 mmHg 55%
    17:00 +24°C° 0.2 mm 1 mps 720 mmHg 63%
    18:00 +23°C° 0.2 mm 1 mps 720 mmHg 68%
    19:00 +21°C° 0.2 mm 1 mps 720 mmHg 73%
    20:00 +20°C° 0.5 mm 1 mps 720 mmHg 76%
    21:00 +19°C° 0.5 mm 1 mps 720 mmHg 80%
    22:00 +16°C° 0.5 mm 0 mps 720 mmHg 84%
    23:00 +16°C° 1.4 mm 1 mps 720 mmHg 86%

    18 July, Thursday

    Time Temperature Precipitation Wind Pressure Humidity
    00:00 +16°C° 1.4 mm 1 mps 720 mmHg 88%
    01:00 +16°C° 1.4 mm 1 mps 720 mmHg 90%
    02:00 +16°C° 0.4 mm 1 mps 720 mmHg 90%
    03:00 +15°C° 0.4 mm 1 mps 720 mmHg 90%
    04:00 +15°C° 0.4 mm 1 mps 720 mmHg 90%
    05:00 +16°C° 0 mm 1 mps 720 mmHg 87%
    06:00 +18°C° 0 mm 1 mps 720 mmHg 84%
    07:00 +19°C° 0 mm 1 mps 720 mmHg 81%
    08:00 +21°C° 0 mm 1 mps 720 mmHg 73%
    09:00 +22°C° 0 mm 1 mps 721 mmHg 66%
    10:00 +24°C° 0 mm 1 mps 721 mmHg 59%
    11:00 +24°C° 0.4 mm 1 mps 721 mmHg 58%
    12:00 +25°C° 0.4 mm 1 mps 720 mmHg 58%
    13:00 +25°C° 0.4 mm 1 mps 720 mmHg 58%
    14:00 +25°C° 0.4 mm 1 mps 720 mmHg 59%
    15:00 +25°C° 0.4 mm 2 mps 720 mmHg 60%
    16:00 +25°C° 0.4 mm 2 mps 720 mmHg 61%
    17:00 +23°C° 0.2 mm 2 mps 720 mmHg 68%
    18:00 +21°C° 0.2 mm 2 mps 720 mmHg 75%
    19:00 +20°C° 0.2 mm 2 mps 720 mmHg 82%
    20:00 +19°C° 0 mm 2 mps 720 mmHg 82%
    21:00 +18°C° 0 mm 2 mps 720 mmHg 83%
    22:00 +18°C° 0 mm 2 mps 720 mmHg 84%
    23:00 +17°C° 0 mm 2 mps 720 mmHg 84%

    19 July, Friday

    Time Temperature Precipitation Wind Pressure Humidity
    00:00 +18°C° 0 mm 1 mps 720 mmHg 84%
    01:00 +16°C° 0 mm 1 mps 720 mmHg 85%
    02:00 +16°C° 0 mm 1 mps 720 mmHg 83%
    03:00 +16°C° 0 mm 1 mps 720 mmHg 81%
    04:00 +16°C° 0 mm 1 mps 720 mmHg 79%
    05:00 +18°C° 0 mm 1 mps 721 mmHg 75%
    06:00 +20°C° 0 mm 1 mps 721 mmHg 72%
    07:00 +21°C° 0 mm 1 mps 721 mmHg 68%
    08:00 +23°C° 0 mm 1 mps 722 mmHg 60%
    09:00 +25°C° 0 mm 1 mps 722 mmHg 52%
    10:00 +27°C° 0 mm 1 mps 722 mmHg 44%
    11:00 +27°C° 0.2 mm 2 mps 722 mmHg 47%
    12:00 +27°C° 0.2 mm 2 mps 722 mmHg 51%
    13:00 +27°C° 0.2 mm 2 mps 722 mmHg 54%
    14:00 +27°C° 0.2 mm 2 mps 722 mmHg 52%
    15:00 +27°C° 0.2 mm 2 mps 722 mmHg 50%
    16:00 +27°C° 0.2 mm 1 mps 722 mmHg 48%
    17:00 +26°C° 0 mm 1 mps 722 mmHg 54%
    18:00 +25°C° 0 mm 1 mps 722 mmHg 59%
    19:00 +23°C° 0 mm 1 mps 722 mmHg 65%
    20:00 +22°C° 0 mm 1 mps 722 mmHg 68%
    21:00 +21°C° 0 mm 1 mps 723 mmHg 71%
    22:00 +19°C° 0 mm 1 mps 723 mmHg 74%
    23:00 +19°C° 0 mm 1 mps 723 mmHg 74%

    20 July, Saturday

    Time Temperature Precipitation Wind Pressure Humidity
    00:00 +19°C° 0 mm 1 mps 723 mmHg 75%
    01:00 +18°C° 0 mm 1 mps 723 mmHg 75%
    02:00 +18°C° 0 mm 1 mps 723 mmHg 76%
    03:00 +18°C° 0 mm 1 mps 723 mmHg 76%
    04:00 +16°C° 0 mm 0 mps 723 mmHg 77%
    05:00 +17°C° 0 mm 0 mps 724 mmHg 73%
    06:00 +19°C° 0 mm 0 mps 724 mmHg 70%
    07:00 +21°C° 0 mm 0 mps 725 mmHg 66%
    08:00 +24°C° 0 mm 1 mps 725 mmHg 61%
    09:00 +25°C° 0 mm 2 mps 725 mmHg 56%
    10:00 +27°C° 0 mm 2 mps 725 mmHg 52%
    11:00 +28°C° 0 mm 2 mps 725 mmHg 49%
    12:00 +29°C° 0 mm 3 mps 725 mmHg 47%
    13:00 +30°C° 0 mm 3 mps 725 mmHg 45%
    14:00 +30°C° 0 mm 3 mps 724 mmHg 46%
    15:00 +30°C° 0 mm 3 mps 724 mmHg 47%
    16:00 +30°C° 0 mm 4 mps 724 mmHg 47%
    17:00 +28°C° 0 mm 3 mps 724 mmHg 56%
    18:00 +27°C° 0 mm 3 mps 724 mmHg 64%
    19:00 +25°C° 0 mm 2 mps 724 mmHg 72%
    20:00 +24°C° 0 mm 2 mps 724 mmHg 75%
    21:00 +23°C° 0 mm 2 mps 724 mmHg 78%
    22:00 +21°C° 0 mm 2 mps 724 mmHg 81%
    23:00 +21°C° 0.1 mm 2 mps 724 mmHg 82%
    Show more